• In Uzbekistan
  • List of Countries
  • For 7 days
  • Water Temperature
  • Satellite Maps
  • Weather Map
  • Weather Widgets
  • user-avatar
    Login

    Hourly Weather Usug

    Today, 20 October, Saturday

    Time Temperature Precipitation Wind Pressure Humidity
    00:00 +6°C° 0 mm 2 mps 609 mmHg 74%
    01:00 +6°C° 0 mm 2 mps 609 mmHg 73%
    02:00 +6°C° 0 mm 2 mps 609 mmHg 73%
    03:00 +5°C° 0 mm 2 mps 608 mmHg 73%
    04:00 +5°C° 0 mm 2 mps 608 mmHg 71%
    05:00 +5°C° 0 mm 2 mps 608 mmHg 69%
    06:00 +5°C° 0 mm 2 mps 608 mmHg 68%
    07:00 +7°C° 0 mm 2 mps 609 mmHg 57%
    08:00 +10°C° 0 mm 2 mps 610 mmHg 47%
    09:00 +13°C° 0 mm 1 mps 611 mmHg 35%
    10:00 +14°C° 0 mm 1 mps 611 mmHg 34%
    11:00 +15°C° 0 mm 2 mps 611 mmHg 33%
    12:00 +15°C° 0 mm 2 mps 611 mmHg 31%
    13:00 +15°C° 0 mm 2 mps 611 mmHg 35%
    14:00 +15°C° 0 mm 2 mps 610 mmHg 38%
    15:00 +14°C° 0 mm 2 mps 610 mmHg 42%
    16:00 +13°C° 0 mm 1 mps 609 mmHg 50%
    17:00 +11°C° 0 mm 1 mps 608 mmHg 58%
    18:00 +9°C° 0 mm 1 mps 608 mmHg 66%
    19:00 +9°C° 0 mm 1 mps 608 mmHg 64%
    20:00 +9°C° 0 mm 1 mps 608 mmHg 61%
    21:00 +8°C° 0 mm 1 mps 608 mmHg 58%
    22:00 +8°C° 0 mm 1 mps 607 mmHg 56%
    23:00 +8°C° 0 mm 1 mps 607 mmHg 54%

    Tomorrow, 21 October, Sunday

    Time Temperature Precipitation Wind Pressure Humidity
    00:00 +8°C° 0 mm 1 mps 607 mmHg 53%
    01:00 +8°C° 0 mm 1 mps 607 mmHg 51%
    02:00 +7°C° 0 mm 2 mps 607 mmHg 49%
    03:00 +6°C° 0 mm 2 mps 607 mmHg 48%
    04:00 +7°C° 0 mm 1 mps 607 mmHg 45%
    05:00 +7°C° 0 mm 1 mps 607 mmHg 42%
    06:00 +7°C° 0 mm 1 mps 607 mmHg 40%
    07:00 +9°C° 0 mm 1 mps 608 mmHg 37%
    08:00 +11°C° 0 mm 1 mps 609 mmHg 34%
    09:00 +13°C° 0 mm 1 mps 610 mmHg 31%
    10:00 +14°C° 0 mm 1 mps 610 mmHg 33%
    11:00 +14°C° 0 mm 2 mps 610 mmHg 34%
    12:00 +15°C° 0 mm 2 mps 610 mmHg 36%
    13:00 +15°C° 0 mm 2 mps 610 mmHg 39%
    14:00 +14°C° 0 mm 2 mps 610 mmHg 42%
    15:00 +14°C° 0 mm 2 mps 610 mmHg 45%
    16:00 +12°C° 0 mm 1 mps 609 mmHg 53%
    17:00 +11°C° 0 mm 1 mps 608 mmHg 60%
    18:00 +9°C° 0 mm 1 mps 608 mmHg 68%
    19:00 +9°C° 0 mm 1 mps 608 mmHg 65%
    20:00 +9°C° 0 mm 1 mps 608 mmHg 63%
    21:00 +8°C° 0 mm 1 mps 608 mmHg 61%
    22:00 +8°C° 0 mm 1 mps 608 mmHg 59%
    23:00 +8°C° 0 mm 1 mps 608 mmHg 57%

    Day after tomorrow, 22 October, Monday

    Time Temperature Precipitation Wind Pressure Humidity
    00:00 +8°C° 0 mm 1 mps 608 mmHg 55%
    01:00 +8°C° 0 mm 1 mps 608 mmHg 53%
    02:00 +7°C° 0 mm 2 mps 608 mmHg 51%
    03:00 +7°C° 0 mm 2 mps 607 mmHg 49%
    04:00 +7°C° 0 mm 2 mps 607 mmHg 48%
    05:00 +7°C° 0 mm 2 mps 607 mmHg 47%
    06:00 +7°C° 0 mm 2 mps 607 mmHg 46%
    07:00 +9°C° 0 mm 1 mps 608 mmHg 44%
    08:00 +11°C° 0 mm 1 mps 609 mmHg 41%
    09:00 +13°C° 0 mm 1 mps 610 mmHg 38%
    10:00 +13°C° 0 mm 1 mps 610 mmHg 39%
    11:00 +14°C° 0 mm 2 mps 610 mmHg 39%
    12:00 +14°C° 0 mm 2 mps 611 mmHg 40%
    13:00 +14°C° 0 mm 2 mps 610 mmHg 44%
    14:00 +14°C° 0 mm 2 mps 610 mmHg 47%
    15:00 +13°C° 0 mm 2 mps 610 mmHg 51%
    16:00 +12°C° 0 mm 1 mps 610 mmHg 59%
    17:00 +10°C° 0 mm 1 mps 609 mmHg 68%
    18:00 +7°C° 0 mm 0 mps 609 mmHg 77%
    19:00 +7°C° 0 mm 0 mps 609 mmHg 77%
    20:00 +7°C° 0 mm 0 mps 609 mmHg 78%
    21:00 +7°C° 0 mm 0 mps 609 mmHg 79%
    22:00 +8°C° 0 mm 1 mps 609 mmHg 76%
    23:00 +7°C° 0 mm 1 mps 609 mmHg 73%

    23 October, Tuesday

    Time Temperature Precipitation Wind Pressure Humidity
    00:00 +7°C° 0 mm 1 mps 609 mmHg 71%
    01:00 +7°C° 0 mm 1 mps 608 mmHg 67%
    02:00 +7°C° 0 mm 1 mps 608 mmHg 64%
    03:00 +6°C° 0 mm 2 mps 608 mmHg 60%
    04:00 +6°C° 0 mm 2 mps 608 mmHg 60%
    05:00 +6°C° 0 mm 2 mps 608 mmHg 59%
    06:00 +6°C° 0 mm 2 mps 608 mmHg 59%
    07:00 +9°C° 0 mm 1 mps 609 mmHg 55%
    08:00 +10°C° 0 mm 1 mps 610 mmHg 51%
    09:00 +12°C° 0 mm 1 mps 610 mmHg 47%
    10:00 +13°C° 0 mm 2 mps 610 mmHg 45%
    11:00 +14°C° 0 mm 2 mps 610 mmHg 44%
    12:00 +15°C° 0 mm 2 mps 610 mmHg 42%
    13:00 +14°C° 0 mm 2 mps 610 mmHg 44%
    14:00 +14°C° 0 mm 2 mps 609 mmHg 46%
    15:00 +13°C° 0 mm 2 mps 609 mmHg 48%
    16:00 +12°C° 0 mm 2 mps 608 mmHg 52%
    17:00 +11°C° 0 mm 1 mps 608 mmHg 56%
    18:00 +9°C° 0 mm 1 mps 607 mmHg 60%
    19:00 +9°C° 0 mm 1 mps 607 mmHg 57%
    20:00 +9°C° 0 mm 1 mps 607 mmHg 55%
    21:00 +8°C° 0 mm 2 mps 607 mmHg 52%
    22:00 +7°C° 0 mm 2 mps 607 mmHg 54%
    23:00 +7°C° 0 mm 2 mps 607 mmHg 55%

    24 October, Wednesday

    Time Temperature Precipitation Wind Pressure Humidity
    00:00 +6°C° 0 mm 2 mps 606 mmHg 56%
    01:00 +6°C° 0 mm 2 mps 606 mmHg 55%
    02:00 +6°C° 0 mm 2 mps 606 mmHg 53%
    03:00 +6°C° 0 mm 2 mps 606 mmHg 52%
    04:00 +6°C° 0 mm 2 mps 606 mmHg 50%
    05:00 +6°C° 0 mm 2 mps 606 mmHg 48%
    06:00 +5°C° 0 mm 2 mps 606 mmHg 46%
    07:00 +7°C° 0 mm 2 mps 606 mmHg 43%
    08:00 +9°C° 0 mm 2 mps 607 mmHg 39%
    09:00 +12°C° 0 mm 2 mps 608 mmHg 36%
    10:00 +13°C° 0 mm 2 mps 608 mmHg 36%
    11:00 +14°C° 0 mm 2 mps 608 mmHg 36%
    12:00 +14°C° 0 mm 3 mps 608 mmHg 36%
    13:00 +13°C° 0 mm 3 mps 607 mmHg 37%
    14:00 +14°C° 0 mm 2 mps 607 mmHg 39%
    15:00 +14°C° 0 mm 2 mps 606 mmHg 40%
    16:00 +12°C° 0 mm 2 mps 605 mmHg 44%
    17:00 +10°C° 0 mm 3 mps 604 mmHg 48%
    18:00 +8°C° 0 mm 3 mps 604 mmHg 52%
    19:00 +8°C° 0 mm 3 mps 603 mmHg 52%
    20:00 +8°C° 0 mm 3 mps 603 mmHg 51%
    21:00 +8°C° 0 mm 3 mps 603 mmHg 50%
    22:00 +8°C° 0 mm 3 mps 602 mmHg 53%
    23:00 +8°C° 0 mm 3 mps 602 mmHg 55%

    25 October, Thursday

    Time Temperature Precipitation Wind Pressure Humidity
    00:00 +8°C° 0 mm 3 mps 601 mmHg 57%
    01:00 +7°C° 0 mm 4 mps 600 mmHg 57%
    02:00 +7°C° 0 mm 4 mps 600 mmHg 57%
    03:00 +7°C° 0 mm 4 mps 600 mmHg 57%
    04:00 +7°C° 0 mm 4 mps 599 mmHg 57%
    05:00 +7°C° 0 mm 4 mps 599 mmHg 56%
    06:00 +7°C° 0 mm 4 mps 599 mmHg 56%
    07:00 +9°C° 0 mm 5 mps 600 mmHg 52%
    08:00 +12°C° 0 mm 5 mps 600 mmHg 47%
    09:00 +14°C° 0 mm 5 mps 601 mmHg 43%
    10:00 +15°C° 0 mm 5 mps 601 mmHg 39%
    11:00 +16°C° 0 mm 5 mps 601 mmHg 35%
    12:00 +17°C° 0 mm 5 mps 601 mmHg 31%
    13:00 +17°C° 0 mm 5 mps 601 mmHg 32%
    14:00 +17°C° 0 mm 5 mps 600 mmHg 34%
    15:00 +16°C° 0 mm 5 mps 600 mmHg 36%
    16:00 +14°C° 0 mm 4 mps 599 mmHg 41%
    17:00 +13°C° 0 mm 4 mps 599 mmHg 46%
    18:00 +11°C° 0 mm 4 mps 598 mmHg 51%
    19:00 +10°C° 0 mm 3 mps 599 mmHg 52%
    20:00 +10°C° 0 mm 3 mps 599 mmHg 52%
    21:00 +10°C° 0 mm 3 mps 599 mmHg 53%
    22:00 +9°C° 0 mm 3 mps 599 mmHg 54%
    23:00 +9°C° 0 mm 3 mps 599 mmHg 55%
    Show more